• In Spain
  • List of Countries
  • For 7 days
  • Water Temperature
  • Satellite Maps
  • Weather Map
  • Weather Widgets
  • user-avatar
    Login

    Hourly Weather Satif

    Today, 23 November, Thursday

    Time Temperature Precipitation Wind Pressure Humidity
    00:00 +7°C° 0 mm 2 mps 672 mmHg 50%
    01:00 +7°C° 0 mm 2 mps 672 mmHg 51%
    02:00 +7°C° 0 mm 2 mps 671 mmHg 52%
    03:00 +7°C° 0 mm 2 mps 671 mmHg 52%
    04:00 +6°C° 0 mm 2 mps 671 mmHg 53%
    05:00 +7°C° 0 mm 1 mps 672 mmHg 54%
    06:00 +6°C° 0 mm 2 mps 672 mmHg 54%
    07:00 +8°C° 0 mm 1 mps 672 mmHg 51%
    08:00 +10°C° 0 mm 1 mps 673 mmHg 48%
    09:00 +11°C° 0 mm 1 mps 674 mmHg 44%
    10:00 +12°C° 0 mm 1 mps 674 mmHg 40%
    11:00 +13°C° 0 mm 1 mps 674 mmHg 35%
    12:00 +14°C° 0 mm 2 mps 674 mmHg 32%
    13:00 +14°C° 0 mm 2 mps 674 mmHg 32%
    14:00 +14°C° 0 mm 2 mps 674 mmHg 32%
    15:00 +14°C° 0 mm 2 mps 674 mmHg 33%
    16:00 +13°C° 0 mm 2 mps 674 mmHg 38%
    17:00 +12°C° 0 mm 1 mps 674 mmHg 43%
    18:00 +10°C° 0 mm 1 mps 674 mmHg 48%
    19:00 +10°C° 0 mm 1 mps 674 mmHg 50%
    20:00 +9°C° 0 mm 1 mps 674 mmHg 51%
    21:00 +8°C° 0 mm 1 mps 674 mmHg 53%
    22:00 +8°C° 0 mm 1 mps 674 mmHg 53%
    23:00 +8°C° 0 mm 1 mps 674 mmHg 53%

    Tomorrow, 24 November, Friday

    Time Temperature Precipitation Wind Pressure Humidity
    00:00 +7°C° 0 mm 1 mps 674 mmHg 53%
    01:00 +7°C° 0 mm 1 mps 674 mmHg 52%
    02:00 +7°C° 0 mm 1 mps 673 mmHg 51%
    03:00 +6°C° 0 mm 1 mps 673 mmHg 50%
    04:00 +6°C° 0 mm 1 mps 673 mmHg 48%
    05:00 +6°C° 0 mm 1 mps 673 mmHg 47%
    06:00 +6°C° 0 mm 1 mps 673 mmHg 45%
    07:00 +8°C° 0 mm 1 mps 674 mmHg 40%
    08:00 +10°C° 0 mm 1 mps 675 mmHg 34%
    09:00 +12°C° 0 mm 1 mps 676 mmHg 28%
    10:00 +14°C° 0 mm 1 mps 676 mmHg 25%
    11:00 +15°C° 0 mm 1 mps 676 mmHg 22%
    12:00 +15°C° 0 mm 0 mps 676 mmHg 19%
    13:00 +15°C° 0 mm 0 mps 676 mmHg 19%
    14:00 +16°C° 0 mm 1 mps 676 mmHg 20%
    15:00 +16°C° 0 mm 1 mps 676 mmHg 21%
    16:00 +14°C° 0 mm 1 mps 675 mmHg 26%
    17:00 +12°C° 0 mm 1 mps 675 mmHg 30%
    18:00 +10°C° 0 mm 0 mps 674 mmHg 35%
    19:00 +10°C° 0 mm 1 mps 675 mmHg 34%
    20:00 +10°C° 0 mm 1 mps 675 mmHg 33%
    21:00 +10°C° 0 mm 1 mps 675 mmHg 31%
    22:00 +10°C° 0 mm 1 mps 675 mmHg 31%
    23:00 +9°C° 0 mm 2 mps 674 mmHg 31%

    Day after tomorrow, 25 November, Saturday

    Time Temperature Precipitation Wind Pressure Humidity
    00:00 +9°C° 0 mm 2 mps 674 mmHg 31%
    01:00 +8°C° 0 mm 2 mps 674 mmHg 32%
    02:00 +8°C° 0 mm 2 mps 674 mmHg 32%
    03:00 +8°C° 0 mm 2 mps 673 mmHg 33%
    04:00 +8°C° 0 mm 2 mps 673 mmHg 33%
    05:00 +7°C° 0 mm 2 mps 673 mmHg 33%
    06:00 +7°C° 0 mm 2 mps 673 mmHg 33%
    07:00 +9°C° 0 mm 2 mps 674 mmHg 32%
    08:00 +11°C° 0 mm 3 mps 675 mmHg 30%
    09:00 +12°C° 0 mm 3 mps 676 mmHg 28%
    10:00 +13°C° 0 mm 3 mps 676 mmHg 25%
    11:00 +16°C° 0 mm 3 mps 676 mmHg 23%
    12:00 +17°C° 0 mm 3 mps 676 mmHg 20%
    13:00 +17°C° 0 mm 2 mps 675 mmHg 21%
    14:00 +17°C° 0 mm 2 mps 675 mmHg 22%
    15:00 +17°C° 0 mm 2 mps 675 mmHg 24%
    16:00 +15°C° 0 mm 2 mps 675 mmHg 28%
    17:00 +13°C° 0 mm 1 mps 674 mmHg 33%
    18:00 +11°C° 0 mm 1 mps 674 mmHg 38%
    19:00 +11°C° 0 mm 1 mps 674 mmHg 38%
    20:00 +10°C° 0 mm 1 mps 675 mmHg 39%
    21:00 +9°C° 0 mm 0 mps 675 mmHg 40%
    22:00 +8°C° 0 mm 0 mps 675 mmHg 40%
    23:00 +9°C° 0 mm 1 mps 675 mmHg 41%

    26 November, Sunday

    Time Temperature Precipitation Wind Pressure Humidity
    00:00 +9°C° 0 mm 1 mps 675 mmHg 41%
    01:00 +8°C° 0 mm 1 mps 674 mmHg 42%
    02:00 +8°C° 0 mm 1 mps 674 mmHg 44%
    03:00 +8°C° 0 mm 1 mps 674 mmHg 45%
    04:00 +8°C° 0 mm 1 mps 674 mmHg 48%
    05:00 +7°C° 0 mm 1 mps 674 mmHg 51%
    06:00 +7°C° 0 mm 1 mps 674 mmHg 54%
    07:00 +9°C° 0 mm 1 mps 675 mmHg 53%
    08:00 +10°C° 0 mm 1 mps 676 mmHg 51%
    09:00 +12°C° 0 mm 1 mps 677 mmHg 50%
    10:00 +13°C° 0 mm 1 mps 677 mmHg 51%
    11:00 +14°C° 0 mm 2 mps 677 mmHg 52%
    12:00 +14°C° 0 mm 2 mps 677 mmHg 53%
    13:00 +14°C° 0 mm 2 mps 677 mmHg 56%
    14:00 +13°C° 0 mm 3 mps 677 mmHg 59%
    15:00 +13°C° 0 mm 3 mps 677 mmHg 63%
    16:00 +12°C° 0.1 mm 3 mps 677 mmHg 70%
    17:00 +11°C° 0.1 mm 3 mps 677 mmHg 77%
    18:00 +9°C° 0.1 mm 2 mps 677 mmHg 85%
    19:00 +9°C° 0 mm 2 mps 677 mmHg 87%
    20:00 +9°C° 0 mm 2 mps 677 mmHg 89%
    21:00 +8°C° 0 mm 2 mps 678 mmHg 91%
    22:00 +8°C° 0 mm 2 mps 677 mmHg 91%
    23:00 +9°C° 0 mm 1 mps 677 mmHg 91%

    27 November, Monday

    Time Temperature Precipitation Wind Pressure Humidity
    00:00 +9°C° 0 mm 1 mps 677 mmHg 91%
    01:00 +8°C° 0 mm 1 mps 677 mmHg 91%
    02:00 +8°C° 0 mm 1 mps 676 mmHg 92%
    03:00 +7°C° 0 mm 1 mps 676 mmHg 92%
    04:00 +7°C° 0 mm 1 mps 676 mmHg 92%
    05:00 +7°C° 0 mm 1 mps 676 mmHg 92%
    06:00 +7°C° 0 mm 1 mps 676 mmHg 91%
    07:00 +8°C° 0 mm 1 mps 677 mmHg 87%
    08:00 +9°C° 0 mm 1 mps 677 mmHg 82%
    09:00 +10°C° 0 mm 1 mps 677 mmHg 77%
    10:00 +11°C° 0 mm 1 mps 677 mmHg 71%
    11:00 +12°C° 0 mm 2 mps 677 mmHg 65%
    12:00 +13°C° 0 mm 2 mps 676 mmHg 59%
    13:00 +13°C° 0 mm 2 mps 676 mmHg 58%
    14:00 +12°C° 0 mm 3 mps 676 mmHg 58%
    15:00 +12°C° 0 mm 3 mps 676 mmHg 57%
    16:00 +12°C° 0 mm 2 mps 675 mmHg 61%
    17:00 +10°C° 0 mm 2 mps 675 mmHg 66%
    18:00 +10°C° 0 mm 1 mps 675 mmHg 71%
    19:00 +10°C° 0 mm 1 mps 675 mmHg 73%
    20:00 +10°C° 0 mm 1 mps 675 mmHg 75%
    21:00 +9°C° 0 mm 1 mps 675 mmHg 77%
    22:00 +9°C° 0 mm 1 mps 675 mmHg 78%
    23:00 +9°C° 0 mm 1 mps 675 mmHg 79%

    28 November, Tuesday

    Time Temperature Precipitation Wind Pressure Humidity
    00:00 +8°C° 0 mm 1 mps 674 mmHg 80%
    01:00 +8°C° 0 mm 1 mps 674 mmHg 81%
    02:00 +7°C° 0 mm 0 mps 674 mmHg 82%
    03:00 +6°C° 0 mm 0 mps 673 mmHg 84%
    04:00 +6°C° 0 mm 0 mps 673 mmHg 84%
    05:00 +6°C° 0 mm 0 mps 673 mmHg 85%
    06:00 +6°C° 0 mm 0 mps 673 mmHg 86%
    07:00 +7°C° 0 mm 0 mps 673 mmHg 80%
    08:00 +8°C° 0 mm 0 mps 674 mmHg 74%
    09:00 +9°C° 0 mm 0 mps 674 mmHg 68%
    10:00 +11°C° 0 mm 1 mps 674 mmHg 63%
    11:00 +12°C° 0 mm 1 mps 674 mmHg 58%
    12:00 +13°C° 0 mm 2 mps 674 mmHg 54%
    13:00 +13°C° 0 mm 2 mps 673 mmHg 53%
    14:00 +14°C° 0 mm 2 mps 673 mmHg 53%
    15:00 +14°C° 0 mm 2 mps 672 mmHg 53%
    16:00 +13°C° 0 mm 2 mps 672 mmHg 57%
    17:00 +12°C° 0 mm 2 mps 672 mmHg 62%
    18:00 +10°C° 0 mm 2 mps 672 mmHg 67%
    19:00 +9°C° 0 mm 2 mps 671 mmHg 67%
    20:00 +9°C° 0 mm 2 mps 671 mmHg 67%
    21:00 +9°C° 0 mm 2 mps 671 mmHg 67%
    22:00 +8°C° 0 mm 3 mps 671 mmHg 68%
    23:00 +8°C° 0 mm 3 mps 670 mmHg 69%
    Show more